This demonstration page uses our WeatherBlox Daily Observations layout. Learn more.

39.08367, -84.50855

Hourly Observations for October 22, 2019

Temp ( °F °C ) Dew Point ( °F °C ) Humidity (%) Winds ( mph kmh ) Pressure ( in mb ) Visibility ( mi km ) Precip ( " mm )
12:50 am 00:50 Partly Cloudy 63 17 57 14 83 83 SSW 14 22 29.8 1009 10 16.0934 0 0
12:53 am 00:53 Partly Cloudy 61 16.1 58 14.4 90 90 SSW 14 22 29.78 1009 10 16.0934 0 0
1:53 am 01:53 Cloudy 61 16.1 57 13.9 87 87 SSW 12 19 29.78 1009 10 16.0934 0 0
2:53 am 02:53 Clear 60 15.6 56 13.3 86 86 SSW 9 15 29.77 1008 10 16.0934 0 0
3:53 am 03:53 Clear 57 13.9 55 12.8 93 93 SSW 8 13 29.76 1008 10 16.0934 0 0
4:53 am 04:53 Partly Cloudy 57 13.9 55 12.8 93 93 S 8 13 29.76 1008 10 16.0934 0 0
5:53 am 05:53 Clear 56 13.3 55 12.8 97 97 S 8 13 29.79 1009 10 16.0934 0 0
6:53 am 06:53 Clear 54 12.2 52 11.1 93 93 SSW 9 15 29.79 1009 10 16.0934 0 0
7:53 am 07:53 Clear 54 12.2 52 11.1 93 93 S 10 17 29.79 1009 10 16.0934 0 0
8:53 am 08:53 Sunny 57 13.9 52 11.1 83 83 SSW 13 20 29.8 1009 10 16.0934 0 0
9:53 am 09:53 Mostly Cloudy 57 13.9 48 8.9 72 72 WSW 21 33 29.82 1010 10 16.0934 0 0
10:53 am 10:53 Mostly Sunny 59 15 45 7.2 60 60 W 17 28 29.81 1010 10 16.0934 0 0
11:53 am 11:53 Mostly Cloudy 60 15.6 44 6.7 56 56 WSW 13 20 29.82 1010 10 16.0934 0 0
12:53 pm 12:53 Mostly Sunny 60 15.6 41 5 50 50 WSW 20 31 29.82 1010 10 16.0934 0 0
1:53 pm 13:53 Partly Cloudy 63 17.2 42 5.6 47 47 SW 18 30 29.8 1009 10 16.0934 0 0
2:53 pm 14:53 Partly Cloudy 63 17.2 40 4.4 43 43 WSW 16 26 29.8 1009 10 16.0934 0 0
3:53 pm 15:53 Partly Cloudy 64 17.8 39 3.9 40 40 WSW 22 35 29.81 1010 10 16.0934 0 0
4:53 pm 16:53 Mostly Cloudy 63 17.2 39 3.9 41 41 W 12 19 29.83 1010 10 16.0934 0 0
5:53 pm 17:53 Mostly Cloudy 61 16.1 37 2.8 41 41 W 18 30 29.85 1011 10 16.0934 0 0
6:53 pm 18:53 Mostly Clear 59 15 38 3.3 46 46 WSW 14 22 29.86 1011 10 16.0934 0 0
7:53 pm 19:53 Mostly Clear 55 12.8 38 3.3 53 53 WSW 9 15 29.89 1012 10 16.0934 0 0
8:53 pm 20:53 Mostly Clear 53 11.7 39 3.9 59 59 SW 7 11 29.92 1013 10 16.0934 0 0
9:53 pm 21:53 Mostly Clear 53 11.7 39 3.9 59 59 SW 8 13 29.94 1014 10 16.0934 0 0
10:53 pm 22:53 Partly Cloudy 51 10.6 39 3.9 64 64 SW 7 11 29.95 1014 10 16.0934 0 0
11:53 pm 23:53 Mostly Cloudy 52 11.1 40 4.4 64 64 SW 7 11 29.96 1015 10 16.0934 0 0

Powered by AerisWeather